map of BPS home
Great Circle Mapper logo
BPS - Airport
Location
City:  Porto Seguro, Bahia, Brazil
ICAO:SBPS
IATA:BPS

Details
Type:Airport (Aerodrome, Airfield)
Latitude:1626'19"S (-16.438638)
Longitude:3904'51"W (-39.080916)
Datum:WGS 1984
Elevation:168 ft (51 m)
Variation:23.80W (WMM2015 magnetic declination)
-0.05 annual change
Runways:1
Longest:6562 × 148 ft (2000 × 45 m), paved

Time
Time Zone:UTC-3
Local Time:

Weather
METAR:SBPS 271900Z 10008KT 060V120 9999 SCT020 25/19 Q1018
TAF:SBPS 271600Z 2718/2818 11010KT 9999 SCT020 TN19/2807Z TX26/2815Z
BECMG 2721/2723 25005KT
BECMG 2810/2812 11008KT
RMK PEA

Related Locations
Nearby:
Farthest:TIQ: 12119 mi / 19504 km
Tinian Island [Tinian Intl (West Tinian)], MP, US

Find:

   beyond  
but within

Other Information
Maps:
NOTAMs:
Links:
Sources:

  
flag of Brazil
flag of Bahia
  

Sectional Chart

Flight Planning
at skyvector.com

Satellite Image

Google Maps Satellite view

 

Copyright © 2004-2016 Karl L. Swartz. All rights reserved.
The Great Circle Mapper name and logo are trademarks of the Great Circle Mapper.
All other trademarks mentioned herein belong to their respective owners.
Please see credits for attibutions and further copyright information.

  Follow gcmap on Facebook Follow gcmap on Twitter Follow gcmap on Google+ GCmap on LinkedIn

hCard Microformat

Geo Microformat